Regional Weather Roundup
Issued by NWS

Home | Current Version | Previous Version | Text Only | Print | Product List | Glossary Off
Versions: 1 2 3 4 5 6 7 8 9 10 11 12 13 14 15 16 17 18 19 20 21 22 23 24 25 26 27 28 29 30 31 32 33 34 35 36 37 38 39 40 41 42 43 44 45 46 47 48 49 50

000
ASUS45 KTFX 231004
RWRMT
MONTANA HOURLY WEATHER ROUNDUP
NATIONAL WEATHER SERVICE GREAT FALLS MT
404 AM MDT SAT AUG 23 2014

NOTE: "FAIR" INDICATES FEW OR NO CLOUDS BELOW 12000 FEET WITH NO
SIGNIFICANT WEATHER AND/OR OBSTRUCTIONS TO VISIBILITY.

* THESE STATIONS ARE NOT UNDER NWS QUALITY CONTROL. THEY DO NOT
   REPORT WEATHER SUCH AS PRECIPITATION OR FOG.

MTZ001>007-043-231100-
WEST OF THE DIVIDE
CITY           SKY/WX    TMP DP  RH WIND       PRES   REMARKS
KALISPELL      CLOUDY    55  39  55 N13       30.16R
MISSOULA       CLOUDY    55  46  72 N6        30.12S
BUTTE          LGT RAIN  46  43  89 NW8       30.10S
MULLAN PASS    CLOUDY    43  39  86 VRB5      30.18R
* ESSEX        N/A       49  43  80 SE2        N/A
* LINCOLN      N/A       47  43  86 NE9G14     N/A
* LOOKOUT PASS N/A       50  40  69 N3G10      N/A
* POLSON       N/A       52  42  69 N3         N/A
* RONAN APT    CLOUDY    55  46  72 N/A        N/A
* SEELEY LAKE  N/A       48  45  89 S3         N/A
* THOMP F APT  CLOUDY    46  45  96 N/A        N/A
$$

MTZ008-052>055-231100-
SOUTHWEST MONTANA
CITY           SKY/WX    TMP DP  RH WIND       PRES   REMARKS
BOZEMAN        CLOUDY    52  48  86 W9        30.03F
DILLON         LGT RAIN  48  46  93 NE16      30.04S
W YELLOWSTONE  CLOUDY    46  45  96 CALM      30.06F
* THREE FORKS  CLOUDY    52  34  50 N/A        N/A
* BOULDER HILL N/A       42  39  89 N17G24     N/A
* MONIDA PASS  N/A       43  43 100 W6         N/A
* RAYNOLDS PAS N/A       45  43  93 NW10       N/A
* WHITEHALL    N/A       49  45  86 N10G19     N/A
* WISE RIVER   N/A       46  43  89 S7G13      N/A
$$

MTZ009>010-012-014-046-048-049-054-231100-
EAST SLOPES AND CENTRAL MONTANA
CITY           SKY/WX    TMP DP  RH WIND       PRES   REMARKS
CUT BANK       RAIN      46  45  96 N20       30.21F VSB 3
GREAT FALLS    RAIN      48  48 100 NW16      30.09F VSB 3
HELENA         LGT RAIN  50  46  86 W10       30.11S
MALMSTROM AFB  RAIN      52  52 100 N7        30.10S
* CONRAD       CLOUDY    46  46 100 NW10G23    N/A
* DEARBORN     N/A       49  48  96 S2         N/A
* EAST GLACIER N/A       42  41  96 NE16G22    N/A
* MONARCH      N/A       44  41  89 NW8        N/A
* PENDROY      N/A       44  43  96 N19G27     N/A
* SAINT MARY   N/A       43  42  96 NE6G14     N/A
* SWEET GRASS  N/A       45  45 100 N18G25     N/A
$$

MTZ011-013-016-021-035-040-045-047-050-051-231100-
NORTH CENTRAL MONTANA
CITY           SKY/WX    TMP DP  RH WIND       PRES   REMARKS
HAVRE          LGT RAIN  55  54  96 NE17      30.10F
LEWISTOWN      LGT RAIN  55  52  90 N10       30.02F
* CHESTER      N/A       53  51  93 NE13G22    N/A
* DENTON       N/A       54  53  96 N11        N/A
* GEYSER       N/A       49  48  96 W14        N/A
* JUDITH GAP   N/A       52  51  96 N18G24     N/A
$$

MTZ017>020-022>027-061-062-231100-
NORTHEAST MONTANA
CITY           SKY/WX    TMP DP  RH WIND       PRES   REMARKS
GLASGOW        LGT RAIN  57  55  93 NE21      30.03F
GLENDIVE       CLOUDY    61  61 100 E14       30.00F
JORDAN         CLOUDY    57  55  93 NE18      29.99R
SIDNEY         CLOUDY    61  59  93 NE13G21   30.05S
WOLF POINT     RAIN      59  55  87 NE22      30.04F
* BEAVER HILL  N/A       60  59  97 E27G34     N/A
* CIRCLE       N/A       58  57  96 NE16G22    N/A
* LINDSAY DVD  N/A       58  58 100 NE17G22    N/A
* SACO         N/A       60  54  81 NE12G17    N/A
$$

MTZ028>042-056>058-231100-
SOUTHCENTRAL AND SOUTHEAST MONTANA
CITY           SKY/WX    TMP DP  RH WIND       PRES   REMARKS
BAKER          HVY RAIN  63  63 100 E16       29.96F VSB 3
BILLINGS       LGT RAIN  61  59  93 N3        29.92F VSB 2
LIVINGSTON     LGT RAIN  52  48  86 NW12      30.01S
MILES CITY     FOG       63  63 100 NE8       29.93F
* LAUREL APT   CLOUDY    59  55  87 N/A        N/A
* ROUNDUP APT  CLOUDY    57  54  90 N10G15     N/A
* ALZADA       N/A       62  62 100 NE8        N/A
* HYSHAM       N/A       61  58  90 E6         N/A
* LAME DEER    N/A       57  56  96 E4         N/A
* REED POINT   N/A       55  54  96 SW7        N/A
* ROSCOE HILL  N/A       51  47  86 W3G10      N/A
$$

REGIONAL REPORTS...DAKOTAS
CITY           SKY/WX    TMP DP  RH WIND       PRES   REMARKS
WILLISTON      CLOUDY    61  54  78 NE12      30.09F
DICKINSON      FOG       61  61 100 E20G28    30.00F VSB 2 1/2
BEACH          LGT RAIN  59  59 100 E16G25    30.01S VSB 2 1/2
CROSBY         CLOUDY    55  55 100 NE15G22   30.14F
TIOGA          CLOUDY    55  55 100 E16G24    30.14S
WATFORD CITY   CLOUDY    59  55  87 E15G22    30.05S
BISMARCK       CLOUDY    63  59  87 NE14      30.03F
GRAND FORKS    LGT RAIN  63  61  93 N13       30.05F
FARGO          FOG       64  63  97 N9        30.00F VSB 3
BUFFALO SD     CLOUDY    64  63  97 E14       29.89F
RAPID CITY     LGT RAIN  64  64 100 SE9       29.94S
$$

REGIONAL REPORTS...WYOMING/IDAHO/WASHINGTON
CITY           SKY/WX    TMP DP  RH WIND       PRES   REMARKS
GILLETTE       TSTM      59  57  93 E7        29.94F
SHERIDAN       CLOUDY    59  57  93 N5        29.92F
CODY           CLOUDY    54  52  93 N3        29.99R
YELLOWSTONE LA CLOUDY    43  43 100 CALM      30.12F
SALMON         CLOUDY    52  50  93 CALM      30.05S
MULLAN PASS    CLOUDY    43  39  86 VRB5      30.18S
SAND POINT     PTCLDY    57  41  55 NE13G18   30.14R
SPOKANE        MOCLDY    59  45  60 NE6       30.10R
$$

REGIONAL REPORTS...ALBERTA
CITY           SKY/WX    TMP DP  RH WIND       PRES   REMARKS
LETHBRIDGE     LGT RAIN  46  45  96 N13G18    30.29F

$$



USA.gov is the U.S. government's official web portal to all federal, state and local government web resources and services.